Regional Weather Roundup
Issued by NWS

Home | Current Version | Previous Version | Graphics & Text | Print | Product List | Glossary On
Versions: 1 2 3 4 5 6 7 8 9 10 11 12 13 14 15 16 17 18 19 20 21 22 23 24 25 26 27 28 29 30 31 32 33 34 35 36 37 38 39 40 41 42 43 44 45 46 47 48 49 50
000
ASUS44 KMEG 010710
RWRTN
TENNESSEE HOURLY STATE WEATHER ROUNDUP
NATIONAL WEATHER SERVICE MEMPHIS TN
200 AM CDT FRI AUG 01 2014

TNZ002-004-019-021-049-052-054-088>092-010800-
WEST TENNESSEE

CITY           SKY/WX    TMP DP  RH WIND       PRES   REMARKS
MEMPHIS INTL   CLOUDY    72  66  81 NW3       30.05S
NWS MEMPHIS      N/A     70 N/A N/A MISG        N/A
JACKSON        CLOUDY    67  64  90 CALM      30.06S
DYERSBURG      PTCLDY    70  59  68 NE3       30.07S
UNION CITY     PTCLDY    64  64 100 CALM      30.06S
PARIS          CLEAR     60  59  97 CALM      30.07S
LEXINGTON      MOCLDY    63  63 100 CALM      30.05S
SAVANNAH       PTCLDY    65  65 100 CALM      30.06S
$$

TNZ008-025-027-028-033-062-065-066-010800-
NORTH MIDDLE TENNESSEE

CITY           SKY/WX    TMP DP  RH WIND       PRES   REMARKS
NASHVILLE      PTCLDY    67  62  84 CALM      30.06F
DICKSON        PTCLDY    63  61  94 CALM      30.07F
PORTLAND       CLEAR     63  61  94 CALM      30.06F
CLARKSVILLE    CLEAR     64  60  87 NW5       30.05F
LEBANON        PTCLDY    62  60  93 CALM      30.05F
SMYRNA         MOCLDY    64  64 100 CALM      30.06F
MURFREESBORO   PTCLDY    66  63  90 CALM      30.06S
COOKEVILLE     CLEAR     63  63 100 E3        30.07F
GALLATIN       PTCLDY    63  61  93 CALM      30.07F
CROSSVILLE     PTCLDY    64  59  83 CALM      30.11F
$$

TNZ061-075-076-078-094-096-097-010800-
SOUTH MIDDLE TENNESSEE

CITY           SKY/WX    TMP DP  RH WIND       PRES   REMARKS
LEWISBURG      PTCLDY    61  58  90 CALM      30.06F
FAYETTEVILLE   CLEAR     63  59  88 MISG      30.07S
TULLAHOMA      CLEAR     63  57  82 CALM      30.08F
WINCHESTER     CLEAR     63  61  94 CALM      30.07F
MCMINNVILLE    CLEAR     63  63 100 CALM      30.07F
COLUMBIA       CLEAR     64  63  94 CALM      30.05F
SHELBYVILLE    MOCLDY    63  63 100 CALM      30.08S
$$

TNZ017-018-042-046-047-010800-
NORTHEAST TENNESSEE

CITY           SKY/WX    TMP DP  RH WIND       PRES   REMARKS
TRI CITIES     CLOUDY    66  61  84 N3        30.11F
ELIZABETHTON   SUNNY     64  55  72 NE3       30.12F
$$

TNZ012-013-036-069-073-074-010800-
CENTRAL EAST TENNESSEE

CITY           SKY/WX    TMP DP  RH WIND       PRES   REMARKS
KNOXVILLE      CLOUDY    68  65  90 NW5       30.07S
OAK RIDGE      PTCLDY    67  64  90 CALM      30.09F
GATLINBURG     SUNNY     64  63  94 CALM      30.07F
MORRISTOWN     SUNNY     66  59  77 E6        30.09F
$$

TNZ083-085-099-010800-
SOUTHEAST TENNESSEE

CITY           SKY/WX    TMP DP  RH WIND       PRES   REMARKS
CHATTANOOGA    MOCLDY    69  65  86 CALM      30.07F
$$

SKY/WX REPORTED AS FAIR MEANS FEW OR NO CLOUDS BELOW
12 THOUSAND FEET.




USA.gov is the U.S. government's official web portal to all federal, state and local government web resources and services.